[[{"header":{"parameterUnit":"m.s-1","parameterCategory":1,"la1":30.2991,"la2":30.254,"lo1":-89.0895,"lo2":-89.0444,"dy":0.0017,"dx":0.0017,"nx":28,"ny":28,"refTime":"2025-06-03T21:00:00:Z","depth":0,"parameterNumber":2,"parameterNumberName":"U-component_of_WINDS"},"data":[0,0,0,0,0,0,0,0,0,0,0,0,0,0,0,0,0,0,0,0,0,0,0,0,0,0,0,0,0,0,0,0,0,0,0,0,0,0,0,0,0,0,0,0,0,0,0,0,0,0,0,0,0,0,0,0,0,0,-4.1934,-4.1936,0,-4.2055,-4.2057,-4.2058,-4.2026,-4.2023,-4.2021,-4.2018,-4.214,-4.2145,-4.2151,0,0,0,0,0,0,0,0,0,0,0,0,0,-4.1671,-4.1676,-4.1934,-4.1936,-4.1937,-4.2055,-4.2057,-4.2058,-4.2026,-4.2023,-4.202,-4.2017,-4.2138,-4.2145,-4.2151,0,0,0,0,0,0,0,0,0,0,0,0,0,-4.1788,-4.1678,-4.1934,-4.1935,-4.1937,-4.2055,-4.2057,-4.2059,-4.2027,-4.2023,-4.2019,-4.2016,-4.2136,-4.2144,-4.2152,-4.2276,0,0,-4.2177,-4.2181,0,0,0,0,0,0,0,0,-4.1782,-4.1798,-4.1933,-4.1935,-4.1937,-4.2022,-4.2009,-4.2131,-4.2028,-4.1992,-4.2018,-4.2014,-4.2103,-4.2114,-4.2145,-4.2281,-4.2286,-4.2178,-4.2183,-4.2186,-4.2189,0,0,0,0,0,0,0,-4.1774,-4.1792,-4.1982,-4.1935,-4.1938,-4.1929,-4.1941,-4.2032,-4.2067,-4.1995,-4.1993,-4.2008,-4.2104,-4.2137,-4.2147,-4.2288,-4.2178,-4.2185,-4.219,-4.2193,-4.253,-4.2534,0,0,0,0,0,0,-4.1765,-4.1786,-4.1978,-4.1986,-4.1849,-4.1936,-4.1951,-4.1998,-4.2066,-4.2072,-4.2011,-4.2006,-4.2124,-4.2138,-4.2151,-4.2298,-4.2186,-4.2194,-4.2199,-4.2526,-4.2531,-4.2535,0,0,0,0,0,0,-4.1759,-4.1782,-4.1973,-4.1885,-4.1909,-4.1945,-4.1999,-4.2002,-4.2035,-4.2078,-4.2083,-4.2039,-4.2122,-4.214,-4.2245,-4.2302,-4.2198,-4.2205,-4.2521,-4.2527,-4.2533,-4.2593,0,0,0,0,0,0,-4.1752,-4.178,-4.1828,-4.1887,-4.1914,-4.2065,-4.2002,-4.2007,-4.205,-4.2045,-4.2105,-4.2111,-4.2121,-4.2232,-4.2253,-4.2311,-4.2212,-4.2516,-4.2524,-4.2531,-4.2586,-4.2601,-4.2613,0,0,0,0,0,-4.1742,-4.184,-4.1831,-4.1854,-4.1975,-4.2069,-4.2084,-4.2093,-4.2055,-4.2103,-4.213,-4.211,-4.2293,-4.2243,-4.2266,-4.2328,-4.2512,-4.2522,-4.253,-4.258,-4.2598,-4.2613,0,0,0,0,0,0,-4.1787,-4.1848,-4.1838,-4.1958,-4.2009,-4.2063,-4.2123,-4.2112,-4.2174,-4.2166,-4.2174,-4.2188,-4.2295,-4.2322,-4.2266,-4.245,-4.2397,-4.2411,-4.2427,-4.2444,-4.2457,-4.2446,-4.2219,0,0,0,0,0,-4.1811,-4.1883,-4.1932,-4.2033,-4.2059,-4.2087,-4.2129,-4.2132,-4.2184,-4.2205,-4.2239,-4.229,-4.2358,-4.2403,-4.2469,-4.2591,-4.2602,-4.2645,-4.2658,-4.2669,-4.268,-4.2744,-4.2762,-4.2565,-4.2564,-4.2564,0,0,-4.186,-4.1903,-4.1948,-4.2043,-4.2083,-4.2156,-4.2105,-4.2185,-4.2239,-4.2216,-4.2316,-4.2344,-4.2401,-4.2514,-4.2566,-4.2541,-4.2737,-4.2681,-4.2689,-4.2694,-4.2755,-4.2773,-4.279,-4.2571,-4.257,-4.2569,0,0,-4.1987,-4.2028,-4.2115,-4.2156,-4.2217,-4.2235,-4.2256,-4.2313,-4.233,-4.2431,-4.2415,-4.2479,-4.2598,-4.2639,-4.2675,-4.2818,-4.2801,-4.2839,-4.2907,-4.297,-4.2985,-4.2999,-4.3046,-4.3064,-4.2851,-4.2851,-4.2851,0,-4.2041,-4.2151,-4.2162,-4.2243,-4.2284,-4.2269,-4.2356,-4.2395,-4.2474,-4.2502,-4.2473,-4.2621,-4.2659,-4.278,-4.2815,-4.2846,-4.2868,-4.2831,-4.2982,-4.2996,-4.3009,-4.3055,-4.3073,-4.2855,-4.2854,-4.2854,-4.2854,0,-4.2212,-4.2289,-4.2352,-4.2429,-4.2478,-4.2562,-4.2584,-4.2632,-4.2631,-4.2652,-4.2754,-4.2799,-4.2873,-4.2903,-4.2903,-4.3024,-4.3006,-4.298,-4.2926,-4.3032,-4.3074,-4.3092,-4.2861,-4.2859,-4.2858,-4.2857,0,0,-4.2368,-4.245,-4.2472,-4.2506,-4.2572,-4.2631,-4.2714,-4.2787,-4.2826,-4.2882,-4.295,-4.3051,-4.3027,-4.3068,-4.3073,-4.3129,-4.3235,-4.3095,-4.3097,-4.3117,-4.3367,-4.3384,-4.3404,-4.3226,-4.3229,-4.3232,-4.3361,0,-4.2498,-4.2644,-4.2656,-4.2786,-4.2856,-4.2843,-4.2914,-4.2962,-4.2984,-4.3045,-4.307,-4.314,-4.3105,-4.3129,-4.3184,-4.321,-4.3285,-4.3202,-4.3286,-4.3289,-4.3268,-4.3427,-4.3445,-4.3565,-4.3379,-4.3382,-4.3384,0,-4.2668,-4.2729,-4.2866,-4.2921,-4.2951,-4.3015,-4.3081,-4.3142,-4.3195,-4.3207,-4.3253,-4.325,-4.3334,-4.328,-4.3394,-4.3337,-4.3373,-4.3392,-4.3396,-4.3401,-4.334,-4.3433,-4.3603,-4.362,-4.3411,-4.3409,-4.3407,0,-4.2764,-4.288,-4.2976,-4.3006,-4.3073,-4.3118,-4.3148,-4.3198,-4.3241,-4.3299,-4.3326,-4.3394,-4.343,-4.3482,-4.3497,-4.3458,-4.361,-4.3558,-4.362,-4.3619,-4.3649,-4.3647,-4.3825,-4.3679,-4.3679,-4.3678,-4.3678,0,-4.2905,-4.2989,-4.302,-4.3079,-4.3172,-4.3185,-4.3276,-4.3304,-4.3348,-4.3411,-4.3405,-4.3464,-4.3482,-4.3545,-4.3557,-4.3648,-4.3665,-4.3676,-4.3677,-4.3674,-4.3672,-4.3695,-4.3685,-4.3683,-4.3682,-4.3681,-4.368,0,-4.3026,-4.305,-4.3154,-4.321,-4.3225,-4.3291,-4.3338,-4.3394,-4.3416,-4.3496,-4.3515,-4.3548,-4.3621,-4.3642,-4.373,-4.3738,-4.3844,-4.384,-4.3825,-4.3824,-4.3883,-4.3876,-4.4079,-4.4105,-4.3946,-4.3947,-4.3948,0,-4.3113,-4.3177,-4.3239,-4.3281,-4.3313,-4.3381,-4.3424,-4.344,-4.3485,-4.3551,-4.3598,-4.367,-4.3728,-4.3845,-4.3876,-4.3943,-4.3938,-4.4005,-4.3948,-4.3942,-4.3935,-4.3929,-4.3934,-4.4014,-4.4016,-4.4017,-4.4018,0,-4.3264,-4.3272,-4.3335,-4.3402,-4.3454,-4.3508,-4.3559,-4.3594,-4.3616,-4.3667,-4.3742,-4.3787,-4.3876,-4.3947,-4.4014,-4.4044,-4.4034,-4.4037,-4.4054,-4.4049,-4.4037,-4.4041,-4.385,-4.4031,-4.403,-4.4029,-4.4028,-4.4027,-4.3368,-4.3423,-4.3475,-4.3545,-4.3585,-4.3633,-4.3688,-4.3717,-4.3779,-4.3853,-4.3859,-4.3938,-4.3989,-4.4079,-4.4112,-4.4174,-4.4154,-4.418,-4.4186,-4.4191,-4.4194,-4.403,-4.4187,-4.4187,-4.4187,-4.4186,-4.4186,0,-4.3515,-4.3548,-4.3612,-4.3684,-4.3738,-4.3727,-4.3783,-4.3829,-4.3899,-4.3948,-4.4005,-4.4089,-4.4158,-4.4195,-4.4263,-4.4305,-4.4303,-4.4322,-4.4317,-4.4324,-4.421,-4.4187,-4.4323,-4.4323,-4.4323,-4.4323,-4.4323,-4.4323,-4.3598,-4.369,-4.3705,-4.3816,-4.3849,-4.3927,-4.3959,-4.4003,-4.4042,-4.4136,-4.4193,-4.4218,-4.4261,-4.4332,-4.4394,-4.4403,-4.4427,-4.4448,-4.4455,-4.4347,-4.4332,-4.4319,-4.4297,-4.4454,-4.4455,-4.4563,-4.4564,-4.4565]},{"header":{"parameterUnit":"m.s-1","parameterCategory":1,"la1":30.2991,"la2":30.254,"lo1":-89.0895,"lo2":-89.0444,"dy":0.0017,"dx":0.0017,"nx":28,"ny":28,"refTime":"2025-06-03T21:00:00:Z","depth":0,"parameterNumber":3,"parameterNumberName":"V-component_of_WINDS"},"data":[0,0,0,0,0,0,0,0,0,0,0,0,0,0,0,0,0,0,0,0,0,0,0,0,0,0,0,0,0,0,0,0,0,0,0,0,0,0,0,0,0,0,0,0,0,0,0,0,0,0,0,0,0,0,0,0,0,0,2.5493,2.5494,0,2.5557,2.5558,2.5559,2.5502,2.55,2.5498,2.5496,2.5558,2.5562,2.5565,0,0,0,0,0,0,0,0,0,0,0,0,0,2.5319,2.5322,2.5493,2.5494,2.5495,2.5557,2.5558,2.5559,2.5503,2.55,2.5497,2.5495,2.5557,2.5561,2.5566,0,0,0,0,0,0,0,0,0,0,0,0,0,2.539,2.5323,2.5493,2.5474,2.5473,2.5557,2.5558,2.5559,2.5503,2.55,2.5497,2.5493,2.5555,2.5561,2.5566,2.5671,0,0,2.5584,2.5586,0,0,0,0,0,0,0,0,2.5386,2.5396,2.5476,2.5476,2.5475,2.5518,2.5519,2.5596,2.5504,2.5492,2.5496,2.5492,2.5547,2.5553,2.5573,2.5674,2.5676,2.5584,2.5588,2.559,2.5592,0,0,0,0,0,0,0,2.5381,2.5393,2.5518,2.5477,2.5477,2.5462,2.5468,2.5534,2.5538,2.5493,2.5489,2.5497,2.5546,2.5568,2.5574,2.5677,2.5584,2.5589,2.5593,2.5595,2.5866,2.587,0,0,0,0,0,0,2.5378,2.5389,2.5516,2.552,2.5421,2.5468,2.5475,2.5508,2.5537,2.5538,2.55,2.5495,2.556,2.5567,2.5576,2.5699,2.559,2.5595,2.5599,2.5862,2.5867,2.5871,0,0,0,0,0,0,2.5375,2.539,2.5514,2.5454,2.5468,2.5474,2.5512,2.5511,2.5532,2.5543,2.5543,2.5521,2.5557,2.5568,2.5648,2.5701,2.5598,2.5603,2.5858,2.5864,2.5869,2.5947,0,0,0,0,0,0,2.537,2.5389,2.543,2.5455,2.5472,2.5585,2.5515,2.5515,2.5543,2.5536,2.5563,2.5564,2.5555,2.5639,2.5653,2.5707,2.5608,2.5853,2.586,2.5867,2.594,2.5955,2.5967,0,0,0,0,0,2.5364,2.5448,2.5432,2.5448,2.5523,2.5588,2.5598,2.5587,2.5547,2.5587,2.5594,2.5563,2.5693,2.5648,2.5663,2.5719,2.5849,2.5858,2.5866,2.5933,2.5952,2.5967,0,0,0,0,0,0,2.5427,2.5451,2.5433,2.5529,2.5557,2.5579,2.5629,2.5607,2.5646,2.5638,2.5622,2.5628,2.5712,2.5724,2.5673,2.5821,2.5765,2.5777,2.581,2.5828,2.5841,2.5836,2.5612,0,0,0,0,0,2.5453,2.5505,2.5523,2.5605,2.5621,2.5623,2.5651,2.5641,2.5669,2.568,2.5693,2.5721,2.5767,2.5799,2.5842,2.5942,2.5946,2.5988,2.6002,2.6013,2.6023,2.6075,2.6094,2.5899,2.5899,2.5899,0,0,2.5505,2.5524,2.5558,2.5619,2.5639,2.5693,2.5633,2.5692,2.5732,2.5689,2.5764,2.5775,2.5805,2.5895,2.5935,2.5907,2.6078,2.6024,2.6033,2.6036,2.6086,2.6105,2.6121,2.5905,2.5903,2.5903,0,0,2.5627,2.5648,2.5718,2.5741,2.5774,2.5775,2.5792,2.5818,2.5823,2.59,2.5869,2.5915,2.5996,2.6019,2.6041,2.6173,2.6146,2.6188,2.626,2.6312,2.6327,2.634,2.6386,2.6403,2.6198,2.6199,2.6199,0,2.5687,2.5768,2.5757,2.5819,2.5846,2.5812,2.5882,2.5904,2.5949,2.5968,2.5937,2.6039,2.6056,2.6151,2.6183,2.6203,2.6221,2.6184,2.6326,2.6339,2.6352,2.6395,2.6413,2.6203,2.6203,2.6202,2.6202,0,2.5839,2.5896,2.5949,2.5995,2.6028,2.6094,2.6092,2.6127,2.6115,2.6119,2.6197,2.6217,2.6265,2.6287,2.6274,2.6379,2.6361,2.6328,2.627,2.6375,2.6416,2.6433,2.621,2.6209,2.6207,2.6206,0,0,2.6001,2.6041,2.6061,2.6081,2.6116,2.6158,2.6223,2.6271,2.63,2.6333,2.6386,2.6456,2.6427,2.6452,2.6442,2.6487,2.659,2.6449,2.6449,2.6473,2.6706,2.6729,2.6749,2.6573,2.6576,2.6579,2.6703,0,2.6123,2.6236,2.6229,2.6335,2.6386,2.6355,2.6411,2.6438,2.6444,2.6488,2.6494,2.6544,2.6502,2.6517,2.6561,2.6568,2.6636,2.6559,2.662,2.6623,2.6612,2.677,2.6795,2.6911,2.6719,2.6722,2.6724,0,2.628,2.632,2.6431,2.6458,2.648,2.653,2.6573,2.6617,2.6646,2.6647,2.6677,2.6659,2.6723,2.6667,2.6754,2.6702,2.6727,2.6735,2.6739,2.6742,2.6678,2.6776,2.6948,2.6965,2.6749,2.6747,2.6745,0,2.6385,2.6466,2.6543,2.6562,2.6596,2.6632,2.6648,2.6674,2.6703,2.6741,2.676,2.6804,2.6828,2.6863,2.6857,2.6817,2.6947,2.6889,2.6948,2.6948,2.6975,2.6973,2.7151,2.6994,2.6994,2.6994,2.6993,0,2.6521,2.659,2.6591,2.6638,2.6715,2.6706,2.6781,2.6793,2.6817,2.6865,2.6841,2.6886,2.6878,2.6923,2.692,2.6992,2.7004,2.7005,2.7003,2.7007,2.7006,2.7021,2.7012,2.6998,2.6997,2.6996,2.6996,0,2.665,2.6654,2.6736,2.6762,2.677,2.6825,2.6847,2.6891,2.6896,2.6957,2.6971,2.6978,2.703,2.7029,2.7088,2.7086,2.7175,2.7164,2.7165,2.7162,2.7221,2.7215,2.7413,2.7438,2.7267,2.7268,2.727,0,2.6736,2.6789,2.6821,2.6852,2.6871,2.6921,2.6951,2.6945,2.6977,2.7015,2.7055,2.7105,2.7145,2.723,2.7239,2.7284,2.7274,2.734,2.728,2.7282,2.7273,2.7269,2.7274,2.7351,2.7353,2.7355,2.7356,0,2.6888,2.6887,2.6932,2.6978,2.7015,2.7051,2.7083,2.711,2.7107,2.7145,2.7198,2.7229,2.7291,2.734,2.7384,2.7399,2.7377,2.7376,2.7391,2.7394,2.7392,2.7393,2.7195,2.737,2.7369,2.7368,2.7367,2.7366,2.6996,2.7042,2.7072,2.7123,2.7147,2.7178,2.7221,2.7232,2.7277,2.7327,2.7321,2.7381,2.7409,2.7466,2.7485,2.7531,2.7507,2.753,2.7536,2.7541,2.7547,2.7386,2.7539,2.7539,2.7538,2.7538,2.7538,0,2.7145,2.7164,2.7211,2.7258,2.7298,2.7276,2.7311,2.7346,2.7399,2.7428,2.7468,2.753,2.7579,2.7593,2.764,2.7674,2.7665,2.7686,2.7683,2.7687,2.7566,2.7547,2.7693,2.7693,2.7693,2.7693,2.7693,2.7693,2.7228,2.7303,2.7306,2.7393,2.741,2.7469,2.7491,2.752,2.7543,2.7614,2.7654,2.7664,2.7687,2.7736,2.7779,2.7782,2.78,2.7825,2.7824,2.7711,2.7695,2.768,2.7662,2.7829,2.7829,2.794,2.7941,2.7941]}]]